This is the latest recevied weather packets stored in our database for station/object KG5MMT-12. If no packets are shown the sender has not sent any weather packets the latest 10 day(s).
| Time | Temp. | Humidity | Pressure | Rain* | Wind** | Luminosity | Snow |
|---|---|---|---|---|---|---|---|
| 1788552840 | 27.22° C | 31% | 0 hPa | 0 mm | - | - | - |
| 1788552540 | 27.22° C | 33% | 0 hPa | 0 mm | - | - | - |
| 1788552240 | 26.67° C | 34% | 0 hPa | 0 mm | - | - | - |
| 1788551940 | 26.67° C | 34% | 0 hPa | 0 mm | - | - | - |
| 1788551640 | 26.67° C | 34% | 0 hPa | 0 mm | - | - | - |
| 1788551340 | 26.67° C | 37% | 0 hPa | 0 mm | - | - | - |
| 1788551040 | 26.67° C | 36% | 0 hPa | 0 mm | - | - | - |
| 1788550742 | 26.67° C | 39% | 0 hPa | 0 mm | - | - | - |
| 1788550440 | 26.11° C | 38% | 0 hPa | 0 mm | - | - | - |
| 1788550140 | 26.11° C | 39% | 0 hPa | 0 mm | - | - | - |
| 1788549841 | 25.56° C | 39% | 0 hPa | 0 mm | - | - | - |
| 1788549544 | 25° C | 41% | 0 hPa | 0 mm | - | - | - |
| 1788549240 | 25° C | 42% | 0 hPa | 0 mm | - | - | - |
| 1788548941 | 25° C | 40% | 0 hPa | 0 mm | - | - | - |
| 1788548641 | 25° C | 40% | 0 hPa | 0 mm | - | - | - |
| 1788548341 | 25° C | 41% | 0 hPa | 0 mm | - | - | - |
| 1788548041 | 25° C | 41% | 0 hPa | 0 mm | - | - | - |
| 1788547741 | 25° C | 42% | 0 hPa | 0 mm | - | - | - |
| 1788547441 | 25° C | 44% | 0 hPa | 0 mm | - | - | - |
| 1788547141 | 25° C | 40% | 0 hPa | 0 mm | - | - | - |
| 1788546841 | 25° C | 40% | 0 hPa | 0 mm | - | - | - |
| 1788546541 | 25° C | 40% | 0 hPa | 0 mm | - | - | - |
| 1788546241 | 25° C | 38% | 0 hPa | 0 mm | - | - | - |
| 1788545941 | 25.56° C | 37% | 0 hPa | 0 mm | - | - | - |
| 1788545641 | 25.56° C | 38% | 0 hPa | 0 mm | - | - | - |
* Rain latest hour (hover to see other rain measurements)
** Current wind speed in m/s (hover to see current wind gust speed)